Location: Unspecified
(44.4377°N, 88.0525°W)
Time: 11:07:45
(UTC-05:00)

Okean 3 - Visible Passes

Search period start: 24 October 2014 00:00
Search period end: 02 November 2014 23:00
Orbit: 584 x 608 km, 82.5° (Epoch: 24 October)

Date Brightness Start Highest point End Pass type
(mag) Time Alt. Az. Time Alt. Az. Time Alt. Az.
27 Oct 6.5 06:47:09 10° NE 06:49:13 13° ENE 06:51:15 10° E visible
01 Nov 6.8 06:01:20 10° NE 06:02:20 11° ENE 06:03:20 10° E visible
02 Nov 6.4 05:10:00 10° NNE 05:12:40 16° ENE 05:15:20 10° ESE visible
